CW0526 Weather Reports


time (UTC)temp
F
wind
direction
speed
knots
gust
knots
rain 1hr
in
rain 24hr
in
rain mn
in
humidity
%
barometer
mb
20260508141601 57 292 2.6 7.8 0.00 0.03 0.03 60 1017.2
20260508133601 57 237 3.5 7.8 0.00 0.03 0.03 62 1017.0
20260508133103 57 281 1.7 7.0 0.00 0.03 0.03 61 1017.1
20260508131601 58 241 1.7 6.1 0.00 0.03 0.03 61 1017.0
20260508124102 57 278 4.3 13.0 0.00 0.03 0.03 62 1016.8
20260508123601 57 226 3.5 7.8 0.00 0.03 0.03 61 1016.8
20260508121101 58 280 4.3 7.8 0.00 0.06 0.03 62 1016.7
20260508120602 57 80 2.6 6.1 0.00 0.06 0.03 64 1016.7
20260508114601 57 294 3.5 10.4 0.00 0.20 0.03 64 1016.6
20260508114101 57 263 4.3 8.7 0.00 0.20 0.03 64 1016.6
20260508113601 57 232 3.5 10.4 0.00 0.20 0.03 63 1016.5
20260508111101 56 277 3.5 7.0 0.00 0.20 0.03 65 1016.3
20260508110601 56 238 2.6 6.1 0.00 0.20 0.03 63 1016.3
20260508104601 57 294 2.6 5.2 0.00 0.20 0.03 66 1016.3
20260508103102 56 291 2.6 8.7 0.00 0.20 0.03 65 1016.3
20260508101602 56 284 2.6 7.0 0.00 0.20 0.03 64 1016.1
20260508101101 56 178 1.7 7.0 0.00 0.20 0.03 64 1016.1
20260508094602 56 281 5.2 10.4 0.00 0.20 0.03 67 1015.9
20260508093103 56 252 1.7 10.4 0.00 0.20 0.03 69 1015.7
20260508091602 54 299 2.6 8.7 0.00 0.20 0.03 71 1015.7
20260508091101 54 294 2.6 7.0 0.00 0.20 0.03 73 1015.6
20260508090103 53 264 2.6 7.0 0.00 0.20 0.03 74 1015.6
20260508084101 53 284 2.6 7.8 0.00 0.20 0.03 76 1015.4
20260508081601 50 275 0.9 2.6 0.00 0.20 0.03 81 1015.3
20260508081101 50 276 1.7 4.3 0.00 0.20 0.03 80 1015.3
20260508074601 50 292 1.7 2.6 0.00 0.20 0.03 83 1015.1
20260508073601 50 231 2.6 6.1 0.00 0.20 0.03 84 1015.0
20260508070601 49 201 0.9 1.7 0.00 0.20 0.03 87 1014.6
20260508064601 48 254 1.7 2.6 0.00 0.20 0.03 87 1014.3
20260508061101 48 251 0.9 2.6 0.00 0.20 0.03 88 1014.1
20260508054601 48 244 0.0 2.6 0.00 0.20 0.03 88 1013.7
20260508053103 48 245 0.9 4.3 0.00 0.20 0.03 88 1013.5
20260508051602 48 234 1.7 5.2 0.00 0.20 0.03 88 1013.4
20260508051102 48 265 0.9 2.6 0.00 0.20 0.03 88 1013.4
20260508041602 48 265 0.9 2.6 0.00 0.20 0.03 87 1012.9
20260508040602 48 248 0.0 2.6 0.00 0.20 0.03 87 1012.9
20260508034602 48 229 0.9 2.6 0.00 0.20 0.03 87 1012.8
20260508034102 48 220 0.9 2.6 0.00 0.20 0.03 87 1012.8
20260508033602 48 215 0.9 4.3 0.00 0.20 0.03 87 1012.7
20260508031602 48 230 1.7 4.3 0.00 0.20 0.03 87 1012.7
20260508024102 49 212 1.7 2.6 0.00 0.20 0.03 86 1012.5
20260508023602 49 209 0.9 5.2 0.00 0.20 0.03 87 1012.5
20260508023103 49 214 0.9 7.0 0.00 0.20 0.03 86 1012.5
20260508021602 48 228 0.9 4.3 0.00 0.20 0.03 86 1012.5
20260508021101 48 163 0.9 4.3 0.00 0.20 0.03 86 1012.5
20260508014601 48 197 0.9 4.3 0.00 0.20 0.03 85 1012.4
20260508014102 48 161 0.9 4.3 0.00 0.20 0.03 85 1012.4
20260508013602 48 160 0.0 4.3 0.00 0.20 0.03 85 1012.3
20260508013103 48 164 0.9 6.1 0.00 0.20 0.03 85 1012.3
20260508011102 48 168 1.7 7.0 0.01 0.20 0.03 85 1012.2
20260508010602 48 176 2.6 5.2 0.02 0.20 0.03 85 1012.3
20260508004602 48 179 3.5 7.0 0.03 0.20 0.03 84 1012.2
20260508003602 48 164 2.6 5.2 0.03 0.20 0.03 84 1012.2
20260508001602 48 160 0.9 5.2 0.02 0.19 0.02 83 1012.3
20260508000602 49 179 1.7 4.3 0.02 0.18 0.02 82 1012.4
20260507234102 49 168 4.3 8.7 0.00 0.17 0.00 80 1012.2
20260507233602 49 200 2.6 7.8 0.00 0.17 0.00 80 1012.1
20260507231102 49 158 4.3 8.7 0.00 0.17 0.00 80 1011.9
20260507230602 49 174 3.5 10.4 0.00 0.17 0.00 80 1011.9
20260507223603 49 153 3.5 7.8 0.00 0.17 0.17 80 1012.0
20260507223103 49 180 2.6 10.4 0.00 0.17 0.17 80 1012.0
20260507220104 49 175 4.3 12.2 0.00 0.17 0.17 80 1011.7
20260507213103 49 123 4.3 13.0 0.00 0.17 0.17 81 1011.6
20260507210104 50 178 5.2 10.4 0.00 0.17 0.17 80 1011.7
20260507204102 50 182 2.6 7.0 0.00 0.17 0.17 79 1011.7
20260507203602 50 172 4.3 13.0 0.00 0.17 0.17 78 1011.6
20260507201603 51 169 0.9 5.2 0.00 0.17 0.17 77 1011.6
20260507193104 52 156 1.7 7.8 0.00 0.17 0.17 74 1011.2
20260507191603 52 187 2.6 7.0 0.00 0.17 0.17 73 1011.1
20260507184602 54 170 5.2 10.4 0.00 0.17 0.17 70 1011.0
20260507183104 53 178 4.3 10.4 0.00 0.17 0.17 70 1011.0
20260507174602 54 181 2.6 6.1 0.00 0.17 0.17 66 1011.1
20260507174103 54 167 2.6 6.1 0.00 0.17 0.17 67 1011.1
20260507173603 54 164 2.6 5.2 0.00 0.17 0.17 67 1011.1
20260507173104 54 153 1.7 10.4 0.00 0.17 0.17 66 1011.2
20260507164103 56 178 5.2 12.2 0.00 0.17 0.17 62 1011.4
20260507161602 57 173 2.6 10.4 0.00 0.17 0.17 66 1011.3
20260507161102 57 175 4.3 7.8 0.00 0.17 0.17 66 1011.3
20260507160603 58 178 4.3 10.4 0.00 0.17 0.17 65 1011.3
20260507160104 58 295 2.6 10.4 0.00 0.17 0.17 66 1011.3
20260507151103 57 172 5.2 13.9 0.00 0.17 0.17 74 1011.3
20260507150105 56 124 5.2 13.0 0.00 0.17 0.17 74 1011.4
20260507144103 54 170 4.3 13.9 0.00 0.17 0.17 77 1011.7